Find Syracuse 4A

NORAD ID: 49333 Int'l Des: 2021-095 Owner: DGA Country: F operational
HEOCIRCULARGSOGEO

リアルタイム位置

3D地球を読み込み中...

Syracuse 4Aについて

説明を読み込み中...

次回通過

Passes for default location (London). Set your location on the main map for personalized predictions.

高度履歴

Loading altitude history...

軌道要素

1 49333U 21095B 26129.47969412 .00000144 00000-0 00000+0 0 9999
2 49333 0.0128 292.2406 0001565 106.3037 46.9458 1.00267740 17558
Epoch: May 9, 2026 • Age: 8 hours

現在のステータス

高度 35793.7 km
速度 3.07 km/s
衛星直下点 -0.03°S, 45.49°E
打ち上げ日 Oct 24, 2021
運用期間 4.5 years
タイプ other

技術仕様

分類 Payload
質量 3852.00 kg
乾燥質量 3200.00 kg
総質量 3852.00 kg
長さ 5.00 m
直径 2.50 m
スパン 30.00 m
形状 Box + 2 Pan
製造者 THALES
バスタイプ Spacebus NEO100
フェーズステータス In Orbit
所有者/国 DGA/F

Most Searched